Location: Pompeys Pillar
(45.9913°N, 107.9528°W)
Time: 05:03:45
(UTC+00:00)

Tiros 1 - Pass Details

Date: 31 May 2022
Orbit: 629 x 663 km, 48.4° (Epoch: 30 June)

Event Time Altitude Azimuth Distance (km) Brightness Sun altitude
Rises 07:44:08 0° 260° (W) 2,911 - -21.6°
Reaches altitude 10° 07:46:27 10° 262° (W) 2,006 - -21.6°
Exits shadow 07:47:39 18° 264° (W) 1,550 8.9 -21.5°
Maximum altitude 07:51:04 74° 348° (NNW) 660 7.2 -21.4°
Drops below altitude 10° 07:55:43 10° 74° (ENE) 2,022 10.0 -21.3°
Sets 07:58:04 0° 76° (ENE) 2,937 10.9 -21.2°
